Friday Harbor, WA

7:46 AM PDT on April 22, 2018 (GMT -0700)
Friday Harbor

Weather History for KFHR - February, 2014

Change the Weather History Date:

Thursday, February 6, 2014

  Actual Average Record
Temperature  
Mean Temperature 26 °F -  
Max Temperature 30 °F 45 °F 55 °F (1998)
Min Temperature 21 °F 34 °F 21 °F (2014)
Degree Days  
Heating Degree Days 40    
Moisture  
Dew Point 5 °F    
Average Humidity 41    
Maximum Humidity 56    
Minimum Humidity 30    
Precipitation  
Precipitation 0.00 in - - ()
Sea Level Pressure  
Sea Level Pressure 30.05 in    
Wind  
Wind Speed 7 mph (NE)    
Max Wind Speed 13 mph    
Max Gust Speed 20 mph    
Visibility 10 miles    
Events      
Averages and records for this station are not official NWS values.
T = Trace of Precipitation, MM = Missing Value Source: NWS Daily Summary

Daily Weather History Graph

Daily Weather History Graph

Search for Another Location

Airport or City:

Astronomy

Feb. 06, 2014 Rise Set
Actual Time 7:33 AM PST 5:19 PM PST
Civil Twilight 7:00 AM PST 5:52 PM PST
Nautical Twilight 6:23 AM PST 6:29 PM PST
Astronomical Twilight 5:47 AM PST 7:06 PM PST
Moon 10:52 AM PST (2/6) 12:55 AM PST (2/6)
Length of Visible Light 10h 51m
Length of Day
9h 45m
Waxing Crescent, 50% of the Moon is Illuminated
Feb 6
Waxing Crescent
Feb 14
Full
Feb 22
Last Quarter
Mar 1
New
Mar 8
First Quarter

Hourly Weather History & Observations

Time (PST) Temp. Windchill Dew Point Humidity Pressure Visibility Wind Dir Wind Speed Gust Speed Precip Events Conditions
12:53 AM 23.0 °F 14.7 °F 3.0 °F 42% 30.35 in - East 6.9 mph - N/A   Clear
1:53 AM 23.0 °F 12.4 °F 3.9 °F 44% 30.32 in - East 10.4 mph - N/A   Clear
2:53 AM 23.0 °F 12.4 °F 1.0 °F 39% 30.30 in - ENE 10.4 mph - N/A   Clear
3:53 AM 23.0 °F 13.9 °F 1.0 °F 39% 30.27 in - ENE 8.1 mph - N/A   Clear
4:53 AM 23.0 °F 12.4 °F -0.0 °F 37% 30.25 in - ENE 10.4 mph 19.6 mph N/A   Clear
5:53 AM 21.9 °F 12.5 °F 5.0 °F 48% 30.22 in - NNE 8.1 mph - N/A   Clear
6:53 AM 21.9 °F 12.5 °F 5.0 °F 48% 30.19 in 10.0 mi NNE 8.1 mph - N/A   Clear
7:53 AM 21.9 °F 11.7 °F 3.9 °F 46% 30.18 in - NE 9.2 mph - N/A   Clear
8:53 AM 24.1 °F 15.2 °F 3.9 °F 42% 30.16 in - NNE 8.1 mph - N/A   Clear
9:53 AM 28.0 °F 20.0 °F 5.0 °F 38% 30.14 in 10.0 mi NE 8.1 mph - N/A   Clear
10:53 AM 28.9 °F 18.6 °F 3.0 °F 33% 30.12 in 10.0 mi East 12.7 mph - N/A   Clear
11:53 AM 30.0 °F 24.1 °F 5.0 °F 35% 30.08 in 10.0 mi Variable 5.8 mph - N/A   Clear
12:53 PM 30.0 °F 21.7 °F 5.0 °F 35% 30.03 in 10.0 mi NE 9.2 mph - N/A   Clear
1:53 PM 30.0 °F 21.1 °F 3.9 °F 33% 29.98 in 10.0 mi NE 10.4 mph - N/A   Clear
2:53 PM 30.0 °F 24.1 °F 3.0 °F 32% 29.95 in 10.0 mi NNE 5.8 mph - N/A   Clear
3:53 PM 30.0 °F 25.2 °F 1.9 °F 30% 29.91 in 10.0 mi North 4.6 mph - N/A   Clear
4:53 PM 28.9 °F 25.2 °F 3.0 °F 33% 29.88 in 10.0 mi NNE 3.5 mph - N/A   Mostly Cloudy
5:53 PM 26.1 °F - 6.1 °F 43% 29.85 in 10.0 mi Calm Calm - N/A   Clear
6:53 PM 27.0 °F 23.0 °F 5.0 °F 39% 29.83 in 10.0 mi NNW 3.5 mph - N/A   Partly Cloudy
7:53 PM 25.0 °F - 7.0 °F 46% 29.82 in 10.0 mi Calm Calm - N/A   Clear
8:53 PM 28.9 °F 23.9 °F 9.0 °F 43% 29.82 in 10.0 mi ESE 4.6 mph - N/A   Mostly Cloudy
9:53 PM 30.0 °F 25.2 °F 9.0 °F 41% 29.82 in 10.0 mi SE 4.6 mph - N/A   Overcast
10:53 PM 28.0 °F 21.7 °F 12.9 °F 53% 29.82 in 10.0 mi SE 5.8 mph - N/A   Overcast
11:53 PM 27.0 °F - 12.9 °F 56% 29.82 in 10.0 mi Calm Calm - N/A   Overcast